• în România
  • Lista ţărilor
  • Pe 7 zile
  • Temperatura apei
  • Hartă satelitară
  • Meteo pe hartă
  • Widget-uri
  • user-avatar
    Intrare

    Meteo pe oră la Gubarevka

    Astăzi, 21 Octombrie, Duminică

    Timp Temperatura Precipitaţii Vânt Presiune Umiditate
    00:00 +10°C° 0 mm 3 m/s 752 mmHg 79%
    01:00 +9°C° 0 mm 3 m/s 752 mmHg 78%
    02:00 +9°C° 0 mm 3 m/s 752 mmHg 77%
    03:00 +8°C° 0 mm 3 m/s 752 mmHg 76%
    04:00 +8°C° 0 mm 3 m/s 753 mmHg 76%
    05:00 +7°C° 0 mm 3 m/s 753 mmHg 77%
    06:00 +7°C° 0 mm 3 m/s 753 mmHg 78%
    07:00 +7°C° 0 mm 3 m/s 753 mmHg 75%
    08:00 +8°C° 0 mm 3 m/s 754 mmHg 72%
    09:00 +7°C° 0 mm 4 m/s 754 mmHg 70%
    10:00 +10°C° 0 mm 4 m/s 754 mmHg 64%
    11:00 +11°C° 0 mm 4 m/s 754 mmHg 59%
    12:00 +12°C° 0 mm 3 m/s 755 mmHg 54%
    13:00 +12°C° 0 mm 3 m/s 755 mmHg 52%
    14:00 +12°C° 0 mm 3 m/s 755 mmHg 51%
    15:00 +12°C° 0 mm 3 m/s 755 mmHg 49%
    16:00 +11°C° 0 mm 3 m/s 755 mmHg 51%
    17:00 +10°C° 0 mm 3 m/s 755 mmHg 54%
    18:00 +10°C° 0 mm 3 m/s 756 mmHg 57%
    19:00 +9°C° 0 mm 3 m/s 756 mmHg 58%
    20:00 +9°C° 0 mm 3 m/s 756 mmHg 60%
    21:00 +8°C° 0 mm 3 m/s 756 mmHg 61%
    22:00 +8°C° 0 mm 3 m/s 757 mmHg 63%
    23:00 +7°C° 0 mm 3 m/s 757 mmHg 64%

    Mâine, 22 Octombrie, Luni

    Timp Temperatura Precipitaţii Vânt Presiune Umiditate
    00:00 +7°C° 0 mm 3 m/s 757 mmHg 65%
    01:00 +7°C° 0 mm 3 m/s 757 mmHg 67%
    02:00 +5°C° 0 mm 3 m/s 757 mmHg 69%
    03:00 +5°C° 0 mm 3 m/s 757 mmHg 71%
    04:00 +4°C° 0 mm 3 m/s 757 mmHg 73%
    05:00 +4°C° 0 mm 3 m/s 757 mmHg 74%
    06:00 +4°C° 0 mm 3 m/s 757 mmHg 76%
    07:00 +5°C° 0 mm 3 m/s 758 mmHg 72%
    08:00 +5°C° 0 mm 3 m/s 758 mmHg 68%
    09:00 +7°C° 0 mm 3 m/s 758 mmHg 65%
    10:00 +9°C° 0 mm 3 m/s 758 mmHg 60%
    11:00 +10°C° 0 mm 3 m/s 758 mmHg 55%
    12:00 +11°C° 0 mm 3 m/s 758 mmHg 49%
    13:00 +11°C° 0 mm 3 m/s 757 mmHg 48%
    14:00 +12°C° 0 mm 3 m/s 757 mmHg 46%
    15:00 +12°C° 0 mm 3 m/s 757 mmHg 45%
    16:00 +11°C° 0 mm 3 m/s 756 mmHg 47%
    17:00 +10°C° 0 mm 2 m/s 756 mmHg 50%
    18:00 +9°C° 0 mm 2 m/s 756 mmHg 52%
    19:00 +9°C° 0 mm 2 m/s 756 mmHg 54%
    20:00 +8°C° 0 mm 2 m/s 756 mmHg 55%
    21:00 +8°C° 0 mm 2 m/s 756 mmHg 56%
    22:00 +8°C° 0 mm 2 m/s 755 mmHg 57%
    23:00 +7°C° 0 mm 2 m/s 755 mmHg 58%

    Poimâine, 23 Octombrie, Marţi

    Timp Temperatura Precipitaţii Vânt Presiune Umiditate
    00:00 +7°C° 0 mm 2 m/s 755 mmHg 59%
    01:00 +7°C° 0 mm 2 m/s 755 mmHg 60%
    02:00 +7°C° 0 mm 2 m/s 754 mmHg 62%
    03:00 +5°C° 0 mm 3 m/s 754 mmHg 63%
    04:00 +5°C° 0 mm 3 m/s 753 mmHg 64%
    05:00 +5°C° 0 mm 3 m/s 753 mmHg 66%
    06:00 +5°C° 0 mm 3 m/s 752 mmHg 67%
    07:00 +6°C° 0 mm 4 m/s 752 mmHg 64%
    08:00 +7°C° 0 mm 5 m/s 751 mmHg 62%
    09:00 +8°C° 0 mm 5 m/s 751 mmHg 59%
    10:00 +9°C° 0 mm 6 m/s 750 mmHg 57%
    11:00 +10°C° 0 mm 7 m/s 750 mmHg 54%
    12:00 +11°C° 0 mm 8 m/s 749 mmHg 52%
    13:00 +11°C° 0.1 mm 7 m/s 748 mmHg 53%
    14:00 +11°C° 0.1 mm 7 m/s 747 mmHg 54%
    15:00 +11°C° 0.1 mm 7 m/s 747 mmHg 56%
    16:00 +11°C° 0 mm 7 m/s 746 mmHg 55%
    17:00 +11°C° 0 mm 6 m/s 746 mmHg 53%
    18:00 +13°C° 0 mm 6 m/s 745 mmHg 52%
    19:00 +12°C° 0 mm 5 m/s 745 mmHg 59%
    20:00 +12°C° 0 mm 5 m/s 744 mmHg 65%
    21:00 +12°C° 0 mm 4 m/s 744 mmHg 71%
    22:00 +12°C° 0 mm 4 m/s 744 mmHg 75%
    23:00 +12°C° 0 mm 4 m/s 743 mmHg 80%

    24 Octombrie, Miercuri

    Timp Temperatura Precipitaţii Vânt Presiune Umiditate
    00:00 +11°C° 0 mm 3 m/s 743 mmHg 84%
    01:00 +11°C° 0.1 mm 3 m/s 743 mmHg 83%
    02:00 +11°C° 0.1 mm 3 m/s 743 mmHg 83%
    03:00 +10°C° 0.1 mm 3 m/s 743 mmHg 82%
    04:00 +10°C° 0 mm 3 m/s 742 mmHg 83%
    05:00 +9°C° 0 mm 3 m/s 742 mmHg 84%
    06:00 +8°C° 0 mm 3 m/s 742 mmHg 84%
    07:00 +8°C° 0 mm 4 m/s 742 mmHg 79%
    08:00 +9°C° 0 mm 5 m/s 742 mmHg 74%
    09:00 +10°C° 0 mm 6 m/s 742 mmHg 69%
    10:00 +11°C° 0 mm 6 m/s 742 mmHg 66%
    11:00 +11°C° 0 mm 6 m/s 742 mmHg 63%
    12:00 +12°C° 0 mm 7 m/s 741 mmHg 59%
    13:00 +14°C° 0 mm 6 m/s 741 mmHg 58%
    14:00 +14°C° 0 mm 6 m/s 740 mmHg 58%
    15:00 +14°C° 0 mm 6 m/s 740 mmHg 57%
    16:00 +13°C° 0 mm 5 m/s 740 mmHg 61%
    17:00 +12°C° 0 mm 4 m/s 740 mmHg 64%
    18:00 +11°C° 0 mm 3 m/s 740 mmHg 68%
    19:00 +11°C° 0 mm 4 m/s 739 mmHg 68%
    20:00 +11°C° 0 mm 4 m/s 739 mmHg 68%
    21:00 +11°C° 0 mm 4 m/s 739 mmHg 68%
    22:00 +11°C° 0 mm 4 m/s 739 mmHg 72%
    23:00 +10°C° 0 mm 5 m/s 738 mmHg 75%

    25 Octombrie, Joi

    Timp Temperatura Precipitaţii Vânt Presiune Umiditate
    00:00 +10°C° 0 mm 5 m/s 738 mmHg 78%
    01:00 +10°C° 0.4 mm 5 m/s 738 mmHg 83%
    02:00 +10°C° 0.4 mm 6 m/s 737 mmHg 87%
    03:00 +11°C° 0.4 mm 6 m/s 737 mmHg 91%
    04:00 +11°C° 1.2 mm 6 m/s 736 mmHg 90%
    05:00 +11°C° 1.2 mm 6 m/s 736 mmHg 88%
    06:00 +11°C° 1.2 mm 6 m/s 736 mmHg 87%
    07:00 +11°C° 2 mm 6 m/s 735 mmHg 86%
    08:00 +11°C° 2 mm 6 m/s 735 mmHg 86%
    09:00 +10°C° 2 mm 6 m/s 735 mmHg 85%
    10:00 +11°C° 1 mm 6 m/s 735 mmHg 85%
    11:00 +12°C° 1 mm 5 m/s 735 mmHg 85%
    12:00 +12°C° 1 mm 5 m/s 735 mmHg 85%
    13:00 +12°C° 0.5 mm 5 m/s 735 mmHg 85%
    14:00 +12°C° 0.5 mm 4 m/s 734 mmHg 85%
    15:00 +13°C° 0.5 mm 4 m/s 734 mmHg 84%
    16:00 +12°C° 1.3 mm 4 m/s 734 mmHg 86%
    17:00 +12°C° 1.3 mm 4 m/s 735 mmHg 87%
    18:00 +11°C° 1.3 mm 4 m/s 735 mmHg 89%
    19:00 +11°C° 0.7 mm 4 m/s 735 mmHg 89%
    20:00 +11°C° 0.7 mm 4 m/s 735 mmHg 89%
    21:00 +11°C° 0.7 mm 3 m/s 735 mmHg 90%
    22:00 +10°C° 0.1 mm 4 m/s 735 mmHg 86%
    23:00 +10°C° 0.1 mm 4 m/s 736 mmHg 83%

    26 Octombrie, Vineri

    Timp Temperatura Precipitaţii Vânt Presiune Umiditate
    00:00 +10°C° 0.1 mm 4 m/s 736 mmHg 80%
    01:00 +8°C° 0 mm 4 m/s 736 mmHg 79%
    02:00 +8°C° 0 mm 3 m/s 737 mmHg 78%
    03:00 +8°C° 0 mm 3 m/s 737 mmHg 78%
    04:00 +7°C° 0 mm 3 m/s 737 mmHg 77%
    05:00 +7°C° 0 mm 3 m/s 738 mmHg 75%
    06:00 +7°C° 0 mm 3 m/s 738 mmHg 74%
    07:00 +7°C° 0 mm 3 m/s 738 mmHg 71%
    08:00 +7°C° 0 mm 3 m/s 739 mmHg 67%
    09:00 +6°C° 0 mm 4 m/s 739 mmHg 64%
    10:00 +7°C° 0 mm 4 m/s 739 mmHg 61%
    11:00 +7°C° 0 mm 4 m/s 740 mmHg 58%
    12:00 +8°C° 0 mm 4 m/s 740 mmHg 56%
    13:00 +8°C° 0 mm 4 m/s 740 mmHg 57%
    14:00 +8°C° 0 mm 5 m/s 740 mmHg 58%
    15:00 +8°C° 0 mm 5 m/s 740 mmHg 59%
    16:00 +7°C° 0 mm 4 m/s 741 mmHg 62%
    17:00 +7°C° 0 mm 4 m/s 741 mmHg 66%
    18:00 +7°C° 0 mm 3 m/s 741 mmHg 69%
    19:00 +7°C° 0 mm 3 m/s 742 mmHg 71%
    20:00 +5°C° 0 mm 4 m/s 742 mmHg 72%
    21:00 +5°C° 0 mm 4 m/s 742 mmHg 74%
    22:00 +4°C° 0 mm 4 m/s 742 mmHg 74%
    23:00 +4°C° 0 mm 4 m/s 743 mmHg 75%
    Arată mai mult